Location: Unspecified
(0.0000°N, 0.0000°E)
Time: 22:37:21
(UTC+00:00)

Envisat - Pass Details

Date: 08 December 2018
Orbit: 764 x 766 km, 98.1° (Epoch: 16 October)

Event Time Altitude Azimuth Distance (km) Brightness Sun altitude
Rises 19:23:59 0° 171° (S) 3,228 6.4 -21.1°
Reaches altitude 10° 19:26:17 10° 172° (S) 2,300 5.7 -21.6°
Maximum altitude 19:31:21 77° 258° (WSW) 787 3.1 -22.8°
Drops below altitude 10° 19:36:24 10° 344° (NNW) 2,291 5.4 -23.9°
Sets 19:38:42 0° 345° (NNW) 3,214 6.1 -24.4°
